,,PA_Meas_PMT16A,,PR_Meas_QMR101_102,,RH_Meas_QMH101,,SR_Meas_QMS101,,TA_Meas_QMH101,,GenWind,,GenWind,
time,status,PA,status,PR,status,RH,status,SR,status,TA,status,DirAvg,status,SpdAvg,
2013-01-25, 00:00:05,VALID,919.512,VALID,0,VALID,95.6434,VALID,0.107441,VALID,19.7613,VALID,137,VALID,0.0125,
2013-01-25, 00:01:05,VALID,919.479,VALID,0,VALID,95.7272,VALID,0,VALID,19.7628,VALID,137,VALID,0.301172,
2013-01-25, 00:02:05,VALID,919.473,VALID,0,VALID,95.7806,VALID,0,VALID,19.7628,VALID,137,VALID,0.00117188,
2013-01-25, 00:03:05,VALID,919.459,VALID,0,VALID,95.8035,VALID,0,VALID,19.8018,VALID,137,VALID,0.185547,
2013-01-25, 00:04:05,VALID,919.45,VALID,0,VALID,95.8263,VALID,0,VALID,19.8018,VALID,137,VALID,0.350781,
2013-01-25, 00:05:05,VALID,919.436,VALID,0,VALID,95.8568,VALID,0,VALID,19.8213,VALID,137,VALID,0.327734,
2013-01-25, 00:06:05,VALID,919.41,VALID,0,VALID,95.8721,VALID,0,VALID,19.8213,VALID,137,VALID,0.565234,
2013-01-25, 00:07:05,VALID,919.417,VALID,0,VALID,95.8263,VALID,0.107441,VALID,19.8018,VALID,137,VALID,0.561328,
2013-01-25, 00:08:05,VALID,919.404,VALID,0,VALID,95.8263,VALID,0.107441,VALID,19.7823,VALID,137,VALID,0.744531,
2013-01-25, 00:09:05,VALID,919.392,VALID,0,VALID,95.8035,VALID,0.107441,VALID,19.7433,VALID,122,VALID,0.689844,
2013-01-25, 00:10:05,VALID,919.378,VALID,0,VALID,95.8492,VALID,0.107441,VALID,19.7028,VALID,122,VALID,0.832422,
2013-01-25, 00:11:05,VALID,919.337,VALID,0,VALID,95.9254,VALID,0.107441,VALID,19.7223,VALID,122,VALID,0.782812,
2013-01-25, 00:12:05,VALID,919.368,VALID,0,VALID,95.9102,VALID,0.107441,VALID,19.7238,VALID,122,VALID,0.845703,
2013-01-25, 00:13:05,VALID,919.369,VALID,0,VALID,95.9331,VALID,0,VALID,19.7238,VALID,122,VALID,0.610937,
2013-01-25, 00:14:05,VALID,919.328,VALID,0,VALID,95.9712,VALID,0.107441,VALID,19.7223,VALID,122,VALID,0.719531,
2013-01-25, 00:15:05,VALID,919.313,VALID,0,VALID,95.9712,VALID,0,VALID,19.7238,VALID,122,VALID,0.741016,
2013-01-25, 00:16:05,VALID,919.31,VALID,0,VALID,95.9864,VALID,0,VALID,19.7238,VALID,122,VALID,0.579687,
2013-01-25, 00:17:05,VALID,919.299,VALID,0,VALID,96.0017,VALID,0,VALID,19.7238,VALID,122,VALID,0.475391,
2013-01-25, 00:18:05,VALID,919.286,VALID,0,VALID,95.9864,VALID,0,VALID,19.7238,VALID,122,VALID,0.553125,
2013-01-25, 00:19:05,VALID,919.254,VALID,0,VALID,95.9941,VALID,0.107441,VALID,19.7223,VALID,122,VALID,0.749219,
2013-01-25, 00:20:05,VALID,919.232,VALID,0,VALID,95.9941,VALID,0,VALID,19.7238,VALID,107,VALID,0.951172,
2013-01-25, 00:21:05,VALID,919.227,VALID,0,VALID,96.0169,VALID,0,VALID,19.7448,VALID,107,VALID,0.792969,
2013-01-25, 00:22:05,VALID,919.256,VALID,0,VALID,95.9941,VALID,0,VALID,19.7448,VALID,107,VALID,0.944922,
2013-01-25, 00:23:05,VALID,919.214,VALID,0,VALID,95.9331,VALID,0,VALID,19.7433,VALID,107,VALID,0.730469,
2013-01-25, 00:24:05,VALID,919.186,VALID,0,VALID,95.9331,VALID,0,VALID,19.7433,VALID,107,VALID,0.886328,
2013-01-25, 00:25:05,VALID,919.201,VALID,0,VALID,95.9407,VALID,0,VALID,19.7448,VALID,107,VALID,0.914453,
2013-01-25, 00:26:05,VALID,919.176,VALID,0,VALID,95.9026,VALID,0,VALID,19.7433,VALID,107,VALID,0.757422,
2013-01-25, 00:27:05,VALID,919.155,VALID,0,VALID,95.9178,VALID,0,VALID,19.7433,VALID,107,VALID,0.759375,
2013-01-25, 00:28:05,VALID,919.143,VALID,0,VALID,95.9178,VALID,0,VALID,19.7643,VALID,107,VALID,0.55,
2013-01-25, 00:29:05,VALID,919.121,VALID,0,VALID,95.9026,VALID,0,VALID,19.7448,VALID,107,VALID,0.870313,
2013-01-25, 00:30:05,VALID,919.115,VALID,0,VALID,95.8645,VALID,0,VALID,19.7838,VALID,107,VALID,0.360938,
2013-01-25, 00:31:05,VALID,919.109,VALID,0,VALID,95.8797,VALID,0,VALID,19.7643,VALID,107,VALID,0.267188,
2013-01-25, 00:32:05,VALID,919.111,VALID,0,VALID,95.8873,VALID,0,VALID,19.7448,VALID,108,VALID,0.151953,
2013-01-25, 00:33:05,VALID,919.11,VALID,0,VALID,95.9026,VALID,0,VALID,19.7433,VALID,107,VALID,0.369141,
2013-01-25, 00:34:05,VALID,919.096,VALID,0,VALID,95.9254,VALID,0,VALID,19.7643,VALID,107,VALID,0.501172,
2013-01-25, 00:35:05,VALID,919.066,VALID,0,VALID,95.9331,VALID,0,VALID,19.7433,VALID,107,VALID,0.523438,
2013-01-25, 00:36:05,VALID,919.067,VALID,0,VALID,95.9254,VALID,0,VALID,19.7433,VALID,108,VALID,0.828516,
2013-01-25, 00:37:05,VALID,919.059,VALID,0,VALID,95.9483,VALID,0,VALID,19.7433,VALID,107,VALID,0.645312,
2013-01-25, 00:38:05,VALID,919.042,VALID,0,VALID,95.9254,VALID,0,VALID,19.7223,VALID,107,VALID,0.357031,
2013-01-25, 00:39:05,VALID,919.055,VALID,0,VALID,95.9331,VALID,0,VALID,19.7433,VALID,108,VALID,0.426562,
2013-01-25, 00:40:05,VALID,919.013,VALID,0,VALID,95.9483,VALID,0,VALID,19.7433,VALID,108,VALID,0.544531,
2013-01-25, 00:41:05,VALID,919.038,VALID,0,VALID,96.0017,VALID,0,VALID,19.7418,VALID,108,VALID,0.417188,
2013-01-25, 00:42:05,VALID,919.025,VALID,0,VALID,95.9864,VALID,0,VALID,19.8018,VALID,108,VALID,0.190625,
2013-01-25, 00:43:05,VALID,919.055,VALID,0,VALID,95.9788,VALID,0,VALID,19.7823,VALID,109,VALID,0.348437,
2013-01-25, 00:44:05,VALID,919.048,VALID,0,VALID,95.9788,VALID,0,VALID,19.7823,VALID,150,VALID,0.489062,
2013-01-25, 00:45:05,VALID,919.062,VALID,0,VALID,95.9636,VALID,0,VALID,19.8018,VALID,150,VALID,0.366406,
2013-01-25, 00:46:05,VALID,919.042,VALID,0,VALID,95.9636,VALID,0,VALID,19.7808,VALID,150,VALID,0.412891,
2013-01-25, 00:47:05,VALID,919.032,VALID,0,VALID,95.9636,VALID,0,VALID,19.8213,VALID,150,VALID,0.476953,
2013-01-25, 00:48:05,VALID,919.01,VALID,0,VALID,95.9331,VALID,0,VALID,19.8213,VALID,150,VALID,0.764844,
2013-01-25, 00:49:05,VALID,919.021,VALID,0,VALID,95.9407,VALID,0,VALID,19.8198,VALID,150,VALID,0.541797,
2013-01-25, 00:50:05,VALID,919.012,VALID,0,VALID,95.9026,VALID,0,VALID,19.8408,VALID,150,VALID,0.611719,
2013-01-25, 00:51:05,VALID,919.001,VALID,0,VALID,95.8797,VALID,0,VALID,19.8408,VALID,150,VALID,0.815625,
2013-01-25, 00:52:05,VALID,918.983,VALID,0,VALID,95.8721,VALID,0,VALID,19.8213,VALID,150,VALID,0.778906,
2013-01-25, 00:53:05,VALID,918.941,VALID,0,VALID,95.8797,VALID,0,VALID,19.8213,VALID,150,VALID,0.719531,
2013-01-25, 00:54:05,VALID,918.937,VALID,0,VALID,95.8721,VALID,0,VALID,19.8423,VALID,150,VALID,0.602344,
2013-01-25, 00:55:05,VALID,918.932,VALID,0,VALID,95.8416,VALID,0,VALID,19.8423,VALID,150,VALID,0.765234,
2013-01-25, 00:56:05,VALID,918.903,VALID,0,VALID,95.8263,VALID,0,VALID,19.8213,VALID,150,VALID,0.6875,
2013-01-25, 00:57:05,VALID,918.86,VALID,0,VALID,95.7958,VALID,0,VALID,19.8408,VALID,150,VALID,0.343359,
2013-01-25, 00:58:05,VALID,918.852,VALID,0,VALID,95.773,VALID,0,VALID,19.8408,VALID,150,VALID,0.508203,
2013-01-25, 00:59:05,VALID,918.854,VALID,0,VALID,95.7425,VALID,0,VALID,19.8603,VALID,150,VALID,0.545703,
2013-01-25, 01:00:05,VALID,918.833,VALID,0,VALID,95.712,VALID,0,VALID,19.8603,VALID,150,VALID,0.586719,
2013-01-25, 01:01:05,VALID,918.837,VALID,0,VALID,95.651,VALID,0,VALID,19.9008,VALID,150,VALID,0.471094,
2013-01-25, 01:02:05,VALID,918.818,VALID,0,VALID,95.6434,VALID,0,VALID,19.8798,VALID,150,VALID,0.194922,
2013-01-25, 01:03:05,VALID,918.796,VALID,0,VALID,95.6739,VALID,0,VALID,19.9398,VALID,150,VALID,0.0511719,
2013-01-25, 01:04:05,VALID,918.789,VALID,0,VALID,95.6434,VALID,0,VALID,19.9383,VALID,150,VALID,0.0582031,
2013-01-25, 01:05:05,VALID,918.793,VALID,0,VALID,95.5671,VALID,0,VALID,19.9383,VALID,150,VALID,0.0976563,
2013-01-25, 01:06:05,VALID,918.781,VALID,0,VALID,95.5062,VALID,0,VALID,19.9578,VALID,150,VALID,0.149219,
2013-01-25, 01:07:05,VALID,918.754,VALID,0,VALID,95.3994,VALID,0,VALID,19.9593,VALID,150,VALID,0,
2013-01-25, 01:08:05,VALID,918.775,VALID,0,VALID,95.3613,VALID,0,VALID,19.9788,VALID,150,VALID,0.100781,
2013-01-25, 01:09:05,VALID,918.748,VALID,0,VALID,95.2775,VALID,0,VALID,19.9578,VALID,150,VALID,0.420312,
2013-01-25, 01:10:05,VALID,918.712,VALID,0,VALID,95.1936,VALID,0,VALID,19.9578,VALID,150,VALID,0.310547,
2013-01-25, 01:11:05,VALID,918.721,VALID,0,VALID,95.1097,VALID,0,VALID,19.9984,VALID,150,VALID,0.257422,
2013-01-25, 01:12:05,VALID,918.716,VALID,0,VALID,95.0183,VALID,0,VALID,19.9984,VALID,150,VALID,0,
2013-01-25, 01:13:05,VALID,918.687,VALID,0,VALID,95.0106,VALID,0,VALID,19.9968,VALID,150,VALID,0.084375,
2013-01-25, 01:14:05,VALID,918.678,VALID,0,VALID,95.0106,VALID,0,VALID,20.0374,VALID,150,VALID,0.0910156,
2013-01-25, 01:15:05,VALID,918.668,VALID,0,VALID,95.1097,VALID,0,VALID,20.0358,VALID,150,VALID,0,
2013-01-25, 01:16:05,VALID,918.64,VALID,0,VALID,95.1402,VALID,0,VALID,20.0569,VALID,150,VALID,0,
2013-01-25, 01:17:05,VALID,918.64,VALID,0,VALID,95.2165,VALID,0,VALID,20.0764,VALID,150,VALID,0,
2013-01-25, 01:18:05,VALID,918.625,VALID,0,VALID,95.2546,VALID,0,VALID,20.0358,VALID,150,VALID,0,
2013-01-25, 01:19:05,VALID,918.617,VALID,0,VALID,95.3232,VALID,0,VALID,20.0374,VALID,150,VALID,0,
2013-01-25, 01:20:05,VALID,918.621,VALID,0,VALID,95.3384,VALID,0,VALID,20.0569,VALID,150,VALID,0,
2013-01-25, 01:21:05,VALID,918.566,VALID,0,VALID,95.3842,VALID,0,VALID,20.0358,VALID,150,VALID,0,
2013-01-25, 01:22:05,VALID,918.587,VALID,0,VALID,95.3079,VALID,0,VALID,20.0163,VALID,150,VALID,0,
2013-01-25, 01:23:05,VALID,918.549,VALID,0,VALID,95.2927,VALID,0,VALID,19.9968,VALID,150,VALID,0,
2013-01-25, 01:24:05,VALID,918.53,VALID,0,VALID,95.2622,VALID,0,VALID,19.9968,VALID,150,VALID,0,
2013-01-25, 01:25:05,VALID,918.528,VALID,0,VALID,95.3308,VALID,0,VALID,19.9773,VALID,150,VALID,0.673828,
2013-01-25, 01:26:05,VALID,918.525,VALID,0,VALID,95.3689,VALID,0,VALID,19.9578,VALID,150,VALID,0.498437,
2013-01-25, 01:27:05,VALID,918.514,VALID,0,VALID,95.4833,VALID,0,VALID,19.9578,VALID,150,VALID,0.319531,
2013-01-25, 01:28:05,VALID,918.52,VALID,0,VALID,95.4909,VALID,0,VALID,19.9383,VALID,150,VALID,0.305859,
2013-01-25, 01:29:05,VALID,918.492,VALID,0,VALID,95.5443,VALID,0,VALID,19.9593,VALID,150,VALID,0,
2013-01-25, 01:30:05,VALID,918.5,VALID,0,VALID,95.5976,VALID,0,VALID,19.9383,VALID,150,VALID,0.0109375,
2013-01-25, 01:31:05,VALID,918.473,VALID,0,VALID,95.7044,VALID,0,VALID,19.9578,VALID,150,VALID,0,
2013-01-25, 01:32:04,VALID,918.426,VALID,0.2,VALID,95.6967,VALID,0,VALID,19.9383,VALID,150,VALID,0,
2013-01-25, 01:33:04,VALID,918.437,VALID,0,VALID,95.7806,VALID,0,VALID,19.9984,VALID,150,VALID,0,
2013-01-25, 01:34:04,VALID,918.381,VALID,0,VALID,95.8568,VALID,0,VALID,20.0163,VALID,150,VALID,0,
2013-01-25, 01:35:04,VALID,918.329,VALID,0,VALID,95.9331,VALID,0,VALID,20.0569,VALID,150,VALID,0,
2013-01-25, 01:36:04,VALID,918.356,VALID,0,VALID,95.7577,VALID,0,VALID,19.9968,VALID,150,VALID,0,
2013-01-25, 01:37:04,VALID,918.353,VALID,0,VALID,95.6739,VALID,0,VALID,19.9578,VALID,150,VALID,0.527344,
2013-01-25, 01:38:04,VALID,918.315,VALID,0,VALID,95.6891,VALID,0,VALID,19.9383,VALID,150,VALID,0.674609,
2013-01-25, 01:39:04,VALID,918.311,VALID,0,VALID,95.6891,VALID,0,VALID,19.8993,VALID,119,VALID,0.851563,
2013-01-25, 01:40:04,VALID,918.306,VALID,0.2,VALID,95.6967,VALID,0,VALID,19.8798,VALID,119,VALID,0.637891,
2013-01-25, 01:41:04,VALID,918.292,VALID,0,VALID,95.7349,VALID,0,VALID,19.8798,VALID,119,VALID,0.576953,
2013-01-25, 01:42:04,VALID,918.309,VALID,0,VALID,95.773,VALID,0,VALID,19.8603,VALID,119,VALID,0.638281,
2013-01-25, 01:43:04,VALID,918.261,VALID,0,VALID,95.834,VALID,0,VALID,19.8618,VALID,119,VALID,0.769922,
2013-01-25, 01:44:04,VALID,918.257,VALID,0,VALID,95.8797,VALID,0,VALID,19.8408,VALID,119,VALID,0.910937,
2013-01-25, 01:45:04,VALID,918.242,VALID,0,VALID,95.9178,VALID,0,VALID,19.8618,VALID,119,VALID,0.705469,
2013-01-25, 01:46:04,VALID,918.241,VALID,0,VALID,95.9941,VALID,0,VALID,19.8213,VALID,119,VALID,0.359375,
2013-01-25, 01:47:04,VALID,918.248,VALID,0,VALID,96.0398,VALID,0,VALID,19.8618,VALID,119,VALID,0.584375,
2013-01-25, 01:48:04,VALID,918.238,VALID,0,VALID,96.0322,VALID,0,VALID,19.8408,VALID,119,VALID,0.437891,
2013-01-25, 01:49:04,VALID,918.229,VALID,0,VALID,96.0474,VALID,0,VALID,19.8423,VALID,119,VALID,0.372656,
2013-01-25, 01:50:04,VALID,918.216,VALID,0,VALID,96.0627,VALID,0,VALID,19.8228,VALID,119,VALID,0.270703,
2013-01-25, 01:51:04,VALID,918.21,VALID,0,VALID,96.0855,VALID,0.107441,VALID,19.8408,VALID,119,VALID,0.154687,
2013-01-25, 01:52:04,VALID,918.209,VALID,0,VALID,96.1008,VALID,0,VALID,19.8003,VALID,119,VALID,0.334766,
2013-01-25, 01:53:04,VALID,918.195,VALID,0,VALID,96.1694,VALID,0.107441,VALID,19.8213,VALID,119,VALID,0.450391,
2013-01-25, 01:54:04,VALID,918.185,VALID,0,VALID,96.1694,VALID,0,VALID,19.8213,VALID,119,VALID,0.369922,
2013-01-25, 01:55:04,VALID,918.161,VALID,0,VALID,96.177,VALID,0.107441,VALID,19.8198,VALID,119,VALID,0.0859375,
2013-01-25, 01:56:04,VALID,918.164,VALID,0,VALID,96.2151,VALID,0,VALID,19.8393,VALID,119,VALID,0,
2013-01-25, 01:57:04,VALID,918.141,VALID,0,VALID,96.2304,VALID,0,VALID,19.8408,VALID,119,VALID,0.0449219,
2013-01-25, 01:58:04,VALID,918.143,VALID,0,VALID,96.2685,VALID,0,VALID,19.8393,VALID,119,VALID,0.194531,
2013-01-25, 01:59:04,VALID,918.109,VALID,0,VALID,96.2837,VALID,0,VALID,19.8393,VALID,119,VALID,0,
2013-01-25, 02:00:04,VALID,918.107,VALID,0,VALID,96.2914,VALID,0,VALID,19.8393,VALID,119,VALID,0.210547,
2013-01-25, 02:01:04,VALID,918.034,VALID,0,VALID,96.3219,VALID,0.107441,VALID,19.8198,VALID,119,VALID,0.693359,
2013-01-25, 02:02:04,VALID,918.046,VALID,0,VALID,96.2685,VALID,0,VALID,19.8408,VALID,119,VALID,0.708984,
2013-01-25, 02:03:04,VALID,918.044,VALID,0,VALID,96.2761,VALID,0,VALID,19.8213,VALID,119,VALID,0.713281,
2013-01-25, 02:04:04,VALID,917.994,VALID,0,VALID,96.2685,VALID,0,VALID,19.7823,VALID,119,VALID,0.558203,
2013-01-25, 02:05:04,VALID,917.975,VALID,0,VALID,96.2533,VALID,0,VALID,19.7613,VALID,119,VALID,0.698438,
2013-01-25, 02:06:04,VALID,917.995,VALID,0,VALID,96.2761,VALID,0,VALID,19.7433,VALID,87,VALID,0.659375,
2013-01-25, 02:07:04,VALID,917.998,VALID,0,VALID,96.3219,VALID,0,VALID,19.7433,VALID,87,VALID,0.701563,
2013-01-25, 02:08:04,VALID,917.975,VALID,0,VALID,96.3295,VALID,0,VALID,19.7238,VALID,87,VALID,0.372656,
2013-01-25, 02:09:04,VALID,917.988,VALID,0,VALID,96.3829,VALID,0,VALID,19.7433,VALID,87,VALID,0.0480469,
2013-01-25, 02:10:04,VALID,917.995,VALID,0,VALID,96.3752,VALID,0,VALID,19.7433,VALID,87,VALID,0,
2013-01-25, 02:11:04,VALID,917.999,VALID,0,VALID,96.4286,VALID,0,VALID,19.7838,VALID,87,VALID,0,
2013-01-25, 02:12:04,VALID,917.979,VALID,0,VALID,96.4591,VALID,0,VALID,19.7823,VALID,87,VALID,0,
2013-01-25, 02:13:04,VALID,917.994,VALID,0,VALID,96.4819,VALID,0,VALID,19.8018,VALID,87,VALID,0.226172,
2013-01-25, 02:14:04,VALID,918.029,VALID,0,VALID,96.4515,VALID,0,VALID,19.8018,VALID,87,VALID,0.49375,
2013-01-25, 02:15:04,VALID,918.005,VALID,0,VALID,96.4515,VALID,0,VALID,19.7823,VALID,87,VALID,0.66875,
2013-01-25, 02:16:04,VALID,918.03,VALID,0,VALID,96.4286,VALID,0,VALID,19.8033,VALID,87,VALID,0.452344,
2013-01-25, 02:17:04,VALID,917.98,VALID,0,VALID,96.421,VALID,0,VALID,19.8018,VALID,87,VALID,0.447656,
2013-01-25, 02:18:04,VALID,917.984,VALID,0,VALID,96.4133,VALID,0,VALID,19.8213,VALID,87,VALID,0.199609,
2013-01-25, 02:19:04,VALID,918.012,VALID,0,VALID,96.4438,VALID,0,VALID,19.8408,VALID,87,VALID,0.285547,
2013-01-25, 02:20:04,VALID,917.955,VALID,0,VALID,96.4819,VALID,0,VALID,19.8813,VALID,87,VALID,0.108984,
2013-01-25, 02:21:04,VALID,917.97,VALID,0,VALID,96.4667,VALID,0,VALID,19.8798,VALID,87,VALID,0.498828,
2013-01-25, 02:22:04,VALID,917.894,VALID,0,VALID,96.4743,VALID,0,VALID,19.8588,VALID,87,VALID,0.375,
2013-01-25, 02:23:04,VALID,917.946,VALID,0,VALID,96.4743,VALID,0.107441,VALID,19.8783,VALID,87,VALID,0.183594,
2013-01-25, 02:24:04,VALID,917.962,VALID,0,VALID,96.4972,VALID,0.107441,VALID,19.8783,VALID,87,VALID,0.305859,
2013-01-25, 02:25:04,VALID,917.88,VALID,0,VALID,96.4667,VALID,0,VALID,19.8783,VALID,87,VALID,0.455469,
2013-01-25, 02:26:04,VALID,917.828,VALID,0,VALID,96.4591,VALID,0,VALID,19.8978,VALID,87,VALID,0.235156,
2013-01-25, 02:27:04,VALID,917.811,VALID,0,VALID,96.4591,VALID,0.107441,VALID,19.9173,VALID,87,VALID,0,
2013-01-25, 02:28:04,VALID,917.899,VALID,0,VALID,96.4591,VALID,0,VALID,19.9368,VALID,87,VALID,0.479297,
2013-01-25, 02:29:04,VALID,917.787,VALID,0,VALID,96.4667,VALID,0.107441,VALID,19.8978,VALID,88,VALID,0.480078,
2013-01-25, 02:30:04,VALID,917.732,VALID,0,VALID,96.4286,VALID,0.107441,VALID,19.8978,VALID,88,VALID,0.536719,
2013-01-25, 02:31:04,VALID,917.77,VALID,0,VALID,96.4438,VALID,0,VALID,19.8978,VALID,152,VALID,0.905859,
2013-01-25, 02:32:04,VALID,917.781,VALID,0,VALID,96.421,VALID,0,VALID,19.8783,VALID,152,VALID,0.883203,
2013-01-25, 02:33:04,VALID,917.687,VALID,0,VALID,96.3981,VALID,0,VALID,19.8588,VALID,152,VALID,0.586328,
2013-01-25, 02:34:04,VALID,917.75,VALID,0,VALID,96.3905,VALID,0,VALID,19.8588,VALID,152,VALID,0.370703,
2013-01-25, 02:35:04,VALID,917.659,VALID,0,VALID,96.36,VALID,0,VALID,19.8588,VALID,152,VALID,0.536719,
2013-01-25, 02:36:04,VALID,917.605,VALID,0,VALID,96.3524,VALID,0,VALID,19.8603,VALID,152,VALID,0.198828,
2013-01-25, 02:37:04,VALID,917.8,VALID,0,VALID,96.3447,VALID,0,VALID,19.8603,VALID,152,VALID,0.262109,
2013-01-25, 02:38:04,VALID,917.526,VALID,0,VALID,96.3676,VALID,0,VALID,19.8798,VALID,152,VALID,0.00625,
2013-01-25, 02:39:04,VALID,917.53,VALID,0,VALID,96.3447,VALID,0,VALID,19.8618,VALID,152,VALID,0.289844,
2013-01-25, 02:40:04,VALID,917.592,VALID,0,VALID,96.3371,VALID,0,VALID,19.8408,VALID,152,VALID,0.341016,
2013-01-25, 02:41:04,VALID,917.786,VALID,0,VALID,96.299,VALID,0,VALID,19.8213,VALID,151,VALID,0.614062,
2013-01-25, 02:42:04,VALID,917.639,VALID,0,VALID,96.2609,VALID,0,VALID,19.8213,VALID,151,VALID,0.454297,
2013-01-25, 02:43:04,VALID,917.628,VALID,0,VALID,96.2914,VALID,0,VALID,19.8228,VALID,151,VALID,0.620313,
2013-01-25, 02:44:04,VALID,918.086,VALID,0,VALID,96.2761,VALID,0,VALID,19.8018,VALID,146,VALID,0.719922,
2013-01-25, 02:45:04,VALID,917.83,VALID,0,VALID,96.2837,VALID,0,VALID,19.7823,VALID,137,VALID,0.903906,
2013-01-25, 02:46:04,VALID,917.678,VALID,0,VALID,96.2914,VALID,0,VALID,19.7823,VALID,137,VALID,0.825391,
2013-01-25, 02:47:04,VALID,918.023,VALID,0,VALID,96.3066,VALID,0,VALID,19.7823,VALID,137,VALID,0.547266,
2013-01-25, 02:48:04,VALID,917.459,VALID,0,VALID,96.299,VALID,0,VALID,19.7823,VALID,137,VALID,0.650781,
2013-01-25, 02:49:04,VALID,917.967,VALID,0,VALID,96.2761,VALID,0,VALID,19.7823,VALID,136,VALID,0.783594,
2013-01-25, 02:50:04,VALID,917.879,VALID,0,VALID,96.299,VALID,0,VALID,19.7823,VALID,130,VALID,0.470703,
2013-01-25, 02:51:04,VALID,917.762,VALID,0,VALID,96.3219,VALID,0,VALID,19.7823,VALID,130,VALID,0.523828,
2013-01-25, 02:52:04,VALID,917.735,VALID,0,VALID,96.3219,VALID,0,VALID,19.7823,VALID,130,VALID,0.535547,
2013-01-25, 02:53:04,VALID,917.494,VALID,0,VALID,96.3142,VALID,0,VALID,19.7823,VALID,130,VALID,0.539453,
2013-01-25, 02:54:04,VALID,917.287,VALID,0,VALID,96.3371,VALID,0,VALID,19.7823,VALID,130,VALID,0.894141,
2013-01-25, 02:55:04,VALID,917.497,VALID,0,VALID,96.36,VALID,0,VALID,19.7823,VALID,130,VALID,1.19297,
2013-01-25, 02:56:04,VALID,917.678,VALID,0,VALID,96.3905,VALID,0,VALID,19.7628,VALID,132,VALID,1.04258,
2013-01-25, 02:57:04,VALID,917.524,VALID,0,VALID,96.3752,VALID,0,VALID,19.7628,VALID,131,VALID,1.00469,
2013-01-25, 02:58:04,VALID,917.512,VALID,0,VALID,96.3905,VALID,0,VALID,19.7433,VALID,129,VALID,0.896094,
2013-01-25, 02:59:04,VALID,917.489,VALID,0,VALID,96.4057,VALID,0,VALID,19.7238,VALID,123,VALID,0.830469,
2013-01-25, 03:00:04,VALID,917.858,VALID,0,VALID,96.4286,VALID,0,VALID,19.7238,VALID,124,VALID,0.739062,
2013-01-25, 03:01:04,VALID,918.035,VALID,0,VALID,96.4286,VALID,0,VALID,19.7238,VALID,124,VALID,0.592188,
2013-01-25, 03:02:04,VALID,917.485,VALID,0,VALID,96.4438,VALID,0,VALID,19.7238,VALID,124,VALID,0.797266,
2013-01-25, 03:03:04,VALID,917.716,VALID,0,VALID,96.4286,VALID,0,VALID,19.7043,VALID,124,VALID,0.425391,
2013-01-25, 03:04:04,VALID,918.016,VALID,0,VALID,96.4438,VALID,0,VALID,19.7448,VALID,124,VALID,0.611328,
2013-01-25, 03:05:04,VALID,917.935,VALID,0,VALID,96.4286,VALID,0,VALID,19.7238,VALID,137,VALID,0.8875,
2013-01-25, 03:06:04,VALID,917.231,VALID,0,VALID,96.4362,VALID,0,VALID,19.7223,VALID,137,VALID,0.753906,
2013-01-25, 03:07:04,VALID,917.405,VALID,0,VALID,96.4133,VALID,0.107441,VALID,19.7013,VALID,137,VALID,0.751562,
2013-01-25, 03:08:04,VALID,916.734,VALID,0,VALID,96.4057,VALID,0.107441,VALID,19.7238,VALID,137,VALID,0.708984,
2013-01-25, 03:09:04,VALID,917.897,VALID,0,VALID,96.3905,VALID,0.107441,VALID,19.6833,VALID,122,VALID,0.872266,
2013-01-25, 03:10:04,VALID,917.036,VALID,0,VALID,96.3905,VALID,0.107441,VALID,19.6833,VALID,120,VALID,1.21953,
2013-01-25, 03:11:04,VALID,917.985,VALID,0,VALID,96.3981,VALID,0,VALID,19.6848,VALID,113,VALID,0.566016,
2013-01-25, 03:12:04,VALID,917.539,VALID,0,VALID,96.3676,VALID,0.107441,VALID,19.6638,VALID,113,VALID,0.858594,
2013-01-25, 03:13:04,VALID,917.604,VALID,0,VALID,96.3829,VALID,0,VALID,19.6638,VALID,102,VALID,0.533594,
2013-01-25, 03:14:04,VALID,917.467,VALID,0,VALID,96.3829,VALID,0.107441,VALID,19.6638,VALID,104,VALID,0.695703,
2013-01-25, 03:15:04,VALID,918.4,VALID,0,VALID,96.3981,VALID,0.107441,VALID,19.6638,VALID,108,VALID,0.7625,
2013-01-25, 03:16:04,VALID,916.961,VALID,0,VALID,96.4133,VALID,0.107441,VALID,19.6653,VALID,105,VALID,0.997266,
2013-01-25, 03:17:04,VALID,917.511,VALID,0,VALID,96.4057,VALID,0.107441,VALID,19.6638,VALID,127,VALID,0.382422,
2013-01-25, 03:18:04,VALID,917.797,VALID,0,VALID,96.421,VALID,0,VALID,19.6638,VALID,117,VALID,0.869531,
2013-01-25, 03:19:04,VALID,917.45,VALID,0,VALID,96.4438,VALID,0.107441,VALID,19.6833,VALID,118,VALID,0.970703,
2013-01-25, 03:20:04,VALID,918.708,VALID,0,VALID,96.4438,VALID,0,VALID,19.6833,VALID,117,VALID,0.629297,
2013-01-25, 03:21:04,VALID,916.793,VALID,0,VALID,96.4286,VALID,0,VALID,19.6848,VALID,117,VALID,0.650391,
2013-01-25, 03:22:04,VALID,917.678,VALID,0,VALID,96.4438,VALID,0,VALID,19.6848,VALID,117,VALID,0.780469,
2013-01-25, 03:23:04,VALID,918.301,VALID,0,VALID,96.4438,VALID,0,VALID,19.7043,VALID,117,VALID,0.955078,
2013-01-25, 03:24:04,VALID,919.479,VALID,0,VALID,96.4362,VALID,0,VALID,19.7448,VALID,117,VALID,0.444141,
2013-01-25, 03:25:04,VALID,919.293,VALID,0,VALID,96.4438,VALID,0,VALID,19.7238,VALID,117,VALID,0.473047,
2013-01-25, 03:26:04,VALID,919.39,VALID,0,VALID,96.4286,VALID,0,VALID,19.7448,VALID,117,VALID,0.267188,
2013-01-25, 03:27:04,VALID,918.413,VALID,0,VALID,96.4286,VALID,0,VALID,19.7433,VALID,117,VALID,0.335938,
2013-01-25, 03:28:04,VALID,918.211,VALID,0,VALID,96.421,VALID,0,VALID,19.7433,VALID,117,VALID,0.716016,
2013-01-25, 03:29:04,VALID,916.955,VALID,0,VALID,96.4133,VALID,0,VALID,19.7628,VALID,117,VALID,0.383594,
2013-01-25, 03:30:04,VALID,917.573,VALID,0,VALID,96.4133,VALID,0,VALID,19.7628,VALID,117,VALID,0.0808594,
2013-01-25, 03:31:04,VALID,917.089,VALID,0,VALID,96.4133,VALID,0,VALID,19.8033,VALID,117,VALID,0.221875,
2013-01-25, 03:32:04,VALID,916.483,VALID,0,VALID,96.4362,VALID,0,VALID,19.8228,VALID,117,VALID,0.334766,
2013-01-25, 03:33:04,VALID,917.345,VALID,0,VALID,96.421,VALID,0,VALID,19.8018,VALID,117,VALID,0.310547,
2013-01-25, 03:34:04,VALID,916.928,VALID,0,VALID,96.421,VALID,0,VALID,19.8228,VALID,117,VALID,0.0820313,
2013-01-25, 03:35:04,VALID,916.165,VALID,0,VALID,96.4362,VALID,0,VALID,19.8423,VALID,152,VALID,0.676172,
2013-01-25, 03:36:04,VALID,917.552,VALID,0,VALID,96.4133,VALID,0,VALID,19.8393,VALID,166,VALID,0.334375,
2013-01-25, 03:37:04,VALID,916.94,VALID,0,VALID,96.4362,VALID,0.107441,VALID,19.8798,VALID,166,VALID,0.558203,
2013-01-25, 03:38:04,VALID,916.405,VALID,0,VALID,96.4362,VALID,0,VALID,19.8783,VALID,166,VALID,0.626172,
2013-01-25, 03:39:04,VALID,916.956,VALID,0,VALID,96.4133,VALID,0.107441,VALID,19.8978,VALID,166,VALID,0.253516,
2013-01-25, 03:40:04,VALID,917.561,VALID,0,VALID,96.4057,VALID,0,VALID,19.8978,VALID,166,VALID,0.0183594,
2013-01-25, 03:41:04,VALID,916.835,VALID,0,VALID,96.4057,VALID,0,VALID,19.9173,VALID,166,VALID,0,
2013-01-25, 03:42:04,VALID,916.682,VALID,0,VALID,96.3905,VALID,0.107441,VALID,19.9173,VALID,166,VALID,0,
2013-01-25, 03:43:04,VALID,918.557,VALID,0,VALID,96.3371,VALID,0.107441,VALID,19.8978,VALID,166,VALID,0,
2013-01-25, 03:44:04,VALID,918.355,VALID,0,VALID,96.299,VALID,0,VALID,19.9383,VALID,166,VALID,0,